Latest Weather Observations for Roseworthy

IDS60901

Issued at 8:15 pm CST Sunday 20 April 2014 (issued every 10 minutes, with the page automatically refreshed every 10 minutes)

About weather observations | Map of Adelaide area stations | Latest observations for Adelaide area | Other Formats
Station Details ID: 023122 Name: ROSEWORTHY AWS Lat: -34.51 Lon: 138.68 Height: 65.0 m
Data from the previous 72 hours. | See also: Recent months at Roseworthy
Date/Time
CST
Tmp

°C
App
Tmp
°C
Dew
Point
°C
Rel
Hum
%
Delta-T

°C
Wind Press
QNH
hPa
Press
MSL
hPa
Rain
since
9 am
mm
Dir
 
Spd
km/h
Gust
km/h
Spd
kts
Gust
kts
20/08:00pm 14.2 11.6 9.4 73 2.5 NE 13 15 7 8 1017.7 - 0.0
20/07:30pm 14.8 13.4 9.4 70 2.8 ENE 7 9 4 5 1017.8 - 0.0
20/07:00pm 15.4 13.9 9.1 66 3.2 SE 7 7 4 4 1017.7 - 0.0
20/06:30pm 15.2 14.9 8.7 65 3.3 ESE 0 6 0 3 1017.4 - 0.0
20/06:00pm 18.3 16.7 8.0 51 5.3 SSE 6 9 3 5 1017.1 1017.1 0.0
20/05:30pm 19.6 17.8 8.0 47 6.0 SE 7 7 4 4 1016.8 - 0.0
20/05:00pm 20.5 18.1 6.8 41 7.0 S 9 11 5 6 1017.0 - 0.0
20/04:30pm 20.8 18.3 6.7 40 7.2 S 9 13 5 7 1017.0 - 0.0
20/04:00pm 21.6 18.8 7.1 39 7.5 SSW 11 17 6 9 1016.8 - 0.0
20/03:30pm 21.7 18.6 7.2 39 7.5 SW 13 19 7 10 1016.8 - 0.0
20/03:00pm 22.8 20.2 7.8 38 7.9 SSW 11 26 6 14 1016.7 1016.7 0.0
20/02:30pm 22.5 19.0 7.1 37 8.0 WSW 15 20 8 11 1016.6 - 0.0
20/02:00pm 22.4 20.9 6.6 36 8.1 SSW 4 11 2 6 1016.6 - 0.0
20/01:30pm 22.3 20.3 6.9 37 7.9 W 7 13 4 7 1016.8 - 0.0
20/01:00pm 21.7 19.2 6.4 37 7.8 SSE 9 17 5 9 1017.0 - 0.0
20/12:30pm 21.2 19.3 6.7 39 7.4 WSW 6 15 3 8 1017.4 - 0.0
20/12:00pm 20.8 18.6 6.4 39 7.3 W 7 11 4 6 1017.7 1017.7 0.0
20/11:30am 20.3 18.2 6.6 41 6.9 SE 7 11 4 6 1018.1 - 0.0
20/11:00am 20.3 18.5 7.0 42 6.8 NNE 6 11 3 6 1018.6 - 0.0
20/10:30am 19.3 17.5 8.0 48 5.8 SSE 7 11 4 6 1018.8 - 0.0
20/10:00am 18.6 17.3 7.7 49 5.6 W 4 9 2 5 1018.9 - 0.0
20/09:30am 17.6 16.3 9.2 58 4.4 WNW 6 9 3 5 1019.1 - 0.0
20/09:00am 16.8 15.4 9.7 63 3.7 NE 7 9 4 5 1019.0 1019.0 0.0
20/08:30am 14.9 12.8 8.4 65 3.3 NE 9 11 5 6 1018.9 - 0.0
20/08:00am 13.1 11.1 8.6 74 2.3 NE 9 11 5 6 1018.7 - 0.0
20/07:30am 10.1 7.5 7.7 85 1.2 ENE 11 13 6 7 1018.4 - 0.0
20/07:00am 7.9 4.9 6.0 88 0.9 ENE 11 13 6 7 1018.2 - 0.0
20/06:30am 7.3 3.8 5.4 88 0.8 NE 13 15 7 8 1017.7 - 0.0
20/06:00am 7.6 4.1 5.6 87 0.9 NE 13 15 7 8 1017.6 1017.6 0.0
20/05:30am 6.7 3.8 4.9 88 0.8 ENE 9 11 5 6 1017.5 - 0.0
20/05:00am 7.2 4.4 5.3 88 0.8 E 9 9 5 5 1017.4 - 0.0
20/04:30am 8.1 6.2 7.5 96 0.3 ESE 7 9 4 5 1017.2 - 0.0
20/04:00am 9.0 8.7 8.7 98 0.1 CALM 0 0 0 0 1017.1 - 0.0
20/03:30am 9.6 9.3 8.7 94 0.4 CALM 0 0 0 0 1017.1 - 0.0
20/03:00am 10.2 8.5 8.3 88 0.9 NNE 7 9 4 5 1016.9 1016.9 0.0
20/02:30am 10.0 7.7 7.3 83 1.3 NNE 9 11 5 6 1017.0 - 0.0
20/02:00am 10.9 8.3 7.8 81 1.5 NE 11 13 6 7 1017.1 - 0.0
20/01:30am 10.7 8.3 7.2 79 1.7 NNE 9 13 5 7 1017.3 - 0.0
20/01:00am 9.0 6.4 6.1 82 1.3 ENE 9 11 5 6 1017.5 - 0.0
20/12:30am 9.0 6.6 7.0 87 0.9 E 9 13 5 7 1017.6 - 0.0
20/12:00am 10.4 8.2 6.4 76 1.9 SE 7 11 4 6 1017.6 1017.6 0.0
 
Date/Time
CST
Tmp

°C
App
Tmp
°C
Dew
Point
°C
Rel
Hum
%
Delta-T

°C
Wind Press
QNH
hPa
Press
MSL
hPa
Rain
since
9 am
mm
Dir
 
Spd
km/h
Gust
km/h
Spd
kts
Gust
kts
19/11:30pm 11.2 9.2 7.1 76 2.0 E 7 11 4 6 1017.6 - 0.0
19/11:00pm 11.5 9.1 6.8 73 2.2 E 9 13 5 7 1017.8 - 0.0
19/10:30pm 11.2 8.4 6.9 75 2.1 E 11 13 6 7 1017.9 - 0.0
19/10:00pm 10.6 6.9 4.7 67 2.7 E 13 15 7 8 1018.4 - 0.0
19/09:30pm 9.5 6.1 1.9 59 3.2 ESE 9 13 5 7 1018.4 - 0.0
19/09:00pm 8.9 7.0 0.6 56 3.3 CALM 0 0 0 0 1018.3 1018.3 0.0
19/08:30pm 9.3 7.4 0.7 55 3.5 CALM 0 0 0 0 1018.4 - 0.0
19/08:00pm 9.7 8.1 2.3 60 3.1 CALM 0 0 0 0 1018.3 - 0.0
19/07:30pm 10.8 8.6 3.6 61 3.2 ESE 4 9 2 5 1018.4 - 0.0
19/07:00pm 13.1 11.2 6.5 64 3.2 SSE 6 7 3 4 1018.4 - 0.0
19/06:30pm 13.9 11.4 6.7 62 3.5 SSW 9 11 5 6 1018.2 - 0.0
19/06:00pm 15.1 12.6 6.4 56 4.2 SSW 9 13 5 7 1018.2 1018.2 0.0
19/05:30pm 16.3 11.8 6.2 51 4.9 SW 19 24 10 13 1018.0 - 0.0
19/05:00pm 16.9 12.4 6.1 49 5.3 SSW 19 26 10 14 1017.8 - 0.0
19/04:30pm 19.1 15.8 4.5 38 7.0 SSW 11 17 6 9 1017.8 - 0.0
19/04:00pm 19.0 15.5 3.6 36 7.3 S 11 15 6 8 1018.0 - 0.0
19/03:30pm 19.0 16.3 3.6 36 7.3 SSW 7 13 4 7 1018.0 - 0.0
19/03:00pm 19.0 15.5 3.6 36 7.3 ENE 11 15 6 8 1018.3 1018.3 0.0
19/02:30pm 18.9 15.6 2.3 33 7.6 E 9 15 5 8 1018.5 - 0.0
19/02:00pm 18.6 15.5 3.6 37 7.1 SE 9 17 5 9 1018.6 - 0.0
19/01:30pm 18.6 15.1 3.6 37 7.1 NNE 11 17 6 9 1019.1 - 0.0
19/01:00pm 17.4 13.9 3.3 39 6.5 NNE 11 20 6 11 1019.8 - 0.0
19/12:30pm 17.5 14.4 3.8 40 6.4 NNW 9 19 5 10 1020.3 - 0.0
19/12:00pm 17.6 14.1 3.5 39 6.5 N 11 17 6 9 1021.1 1021.1 0.0
19/11:30am 17.6 12.8 4.5 42 6.2 NE 19 26 10 14 1021.5 - 0.0
19/11:00am 17.6 13.5 4.5 42 6.2 ENE 15 26 8 14 1021.9 - 0.0
19/10:30am 16.5 11.9 3.9 43 5.9 ENE 17 32 9 17 1022.2 - 0.0
19/10:00am 15.9 11.4 6.1 52 4.8 NE 19 22 10 12 1022.6 - 0.0
19/09:30am 15.0 10.7 7.1 59 3.9 NE 19 22 10 12 1023.0 - 0.0
19/09:00am 13.7 10.1 8.3 70 2.7 NE 17 20 9 11 1023.2 1023.2 0.8
19/08:30am 12.6 8.9 8.1 74 2.2 NE 17 20 9 11 1023.0 - 0.8
19/08:00am 11.2 8.3 8.1 81 1.5 NE 13 17 7 9 1022.8 - 0.8
19/07:30am 9.0 5.3 6.4 84 1.2 NE 15 17 8 9 1022.6 - 0.8
19/07:00am 7.7 5.0 5.7 87 0.9 E 9 13 5 7 1022.4 - 0.8
19/06:30am 7.3 5.1 5.1 86 1.0 ENE 6 9 3 5 1022.3 - 0.8
19/06:00am 7.9 4.9 5.9 87 0.9 E 11 15 6 8 1022.2 1022.2 0.8
19/05:30am 7.6 3.8 5.7 88 0.9 NE 15 17 8 9 1021.9 - 0.8
19/05:00am 6.9 3.7 5.2 89 0.8 NNE 11 15 6 8 1021.9 - 0.6
19/04:30am 6.8 3.6 5.1 89 0.7 N 11 13 6 7 1021.8 - 0.6
19/04:00am 6.6 4.3 4.6 87 0.9 E 6 7 3 4 1021.8 - 0.6
19/03:30am 7.4 4.9 5.0 85 1.1 E 7 9 4 5 1021.8 - 0.6
19/03:00am 7.7 4.5 5.3 85 1.1 ENE 11 15 6 8 1021.9 1021.9 0.6
19/02:30am 8.0 4.2 5.6 85 1.1 NE 15 17 8 9 1021.9 - 0.6
19/02:00am 7.7 4.2 5.5 86 1.0 ENE 13 15 7 8 1022.3 - 0.6
19/01:30am 7.6 5.2 5.4 86 1.0 ENE 7 11 4 6 1022.6 - 0.6
19/01:00am 7.2 4.4 5.3 88 0.8 NE 9 13 5 7 1022.7 - 0.6
19/12:30am 7.1 3.9 5.3 88 0.8 NE 11 15 6 8 1022.7 - 0.6
19/12:00am 6.7 3.8 4.9 88 0.8 ENE 9 11 5 6 1022.8 1022.8 0.6
 
Date/Time
CST
Tmp

°C
App
Tmp
°C
Dew
Point
°C
Rel
Hum
%
Delta-T

°C
Wind Press
QNH
hPa
Press
MSL
hPa
Rain
since
9 am
mm
Dir
 
Spd
km/h
Gust
km/h
Spd
kts
Gust
kts
18/11:30pm 7.2 4.0 5.3 88 0.8 ENE 11 11 6 6 1022.9 - 0.6
18/11:00pm 7.2 4.0 5.2 87 0.9 NE 11 11 6 6 1023.0 - 0.6
18/10:30pm 8.3 4.9 6.1 86 1.0 NE 13 15 7 8 1023.2 - 0.6
18/10:00pm 7.3 4.5 5.1 86 1.0 E 9 11 5 6 1023.2 - 0.6
18/09:30pm 8.5 6.2 5.8 83 1.2 ESE 7 9 4 5 1023.2 - 0.6
18/09:00pm 8.5 6.1 5.4 81 1.4 E 7 9 4 5 1023.1 1023.1 0.6
18/08:30pm 9.7 7.0 5.7 76 1.8 ESE 9 11 5 6 1023.0 - 0.6
18/08:00pm 11.0 8.8 6.2 72 2.2 ESE 7 9 4 5 1022.8 - 0.6
18/07:30pm 12.4 9.9 6.5 67 2.8 SE 9 11 5 6 1022.7 - 0.6
18/07:00pm 14.5 11.6 6.3 58 4.0 SSE 11 17 6 9 1022.5 - 0.6
18/06:30pm 15.0 12.7 7.3 60 3.8 S 9 13 5 7 1022.2 - 0.6
18/06:00pm 15.9 11.6 7.7 58 4.1 SSW 20 30 11 16 1021.9 1021.9 0.6
18/05:30pm 16.9 12.5 7.3 53 4.8 SSW 20 30 11 16 1021.4 - 0.6
18/05:00pm 17.9 12.8 7.6 51 5.2 SSW 24 35 13 19 1021.2 - 0.6
18/04:30pm 18.5 13.1 7.9 50 5.4 SW 26 33 14 18 1021.0 - 0.6
18/04:00pm 18.9 13.4 7.4 47 5.9 SW 26 35 14 19 1021.0 - 0.4
18/03:30pm 19.3 13.5 6.4 43 6.5 SW 26 35 14 19 1020.9 - 0.4
18/03:00pm 19.2 14.2 8.2 49 5.7 SW 24 35 13 19 1020.9 1020.9 0.4
18/02:30pm 19.7 15.2 8.4 48 5.9 SW 22 30 12 16 1020.8 - 0.4
18/02:00pm 19.6 14.6 8.0 47 6.0 SW 24 33 13 18 1020.7 - 0.4
18/01:30pm 19.4 14.3 9.3 52 5.3 WSW 26 35 14 19 1020.8 - 0.4
18/01:00pm 19.9 15.9 11.9 60 4.5 SW 24 35 13 19 1020.8 - 0.2
18/12:30pm 18.9 14.4 10.2 57 4.7 SW 24 35 13 19 1021.1 - 0.2
18/12:00pm 19.6 14.7 9.8 53 5.2 WSW 26 35 14 19 1021.4 1021.4 0.2
18/11:30am 19.3 15.4 10.8 58 4.6 SSW 22 32 12 17 1021.5 - 0.2
18/11:00am 19.0 15.2 11.3 61 4.2 SSW 22 33 12 18 1021.5 - 0.2
18/10:30am 18.0 15.7 14.1 78 2.2 SSW 19 30 10 16 1021.6 - 0.2
18/10:00am 17.5 16.0 14.2 81 1.9 SW 15 19 8 10 1021.6 - 0.2
18/09:30am 16.7 15.7 14.7 88 1.2 SSW 13 17 7 9 1021.5 - 0.0
18/09:00am 15.4 14.2 13.9 91 0.8 SW 13 19 7 10 1021.6 1021.6 0.0
18/08:30am 16.2 14.0 14.4 89 1.0 NW 19 24 10 13 1020.8 - 0.0
18/08:00am 15.4 13.9 14.1 92 0.7 NNW 15 17 8 9 1020.4 - 0.0
18/07:30am 14.8 12.7 13.5 92 0.7 N 17 19 9 10 1020.3 - 0.0
18/07:00am 14.2 12.3 13.1 93 0.6 N 15 17 8 9 1020.0 - 0.0
18/06:30am 13.7 11.7 12.6 93 0.6 N 15 17 8 9 1019.9 - 0.0
18/06:00am 13.4 12.0 12.3 93 0.6 NNW 11 13 6 7 1020.0 1020.0 0.0
18/05:30am 12.3 10.6 11.2 93 0.6 NNW 11 13 6 7 1019.9 - 0.0
18/05:00am 12.4 10.3 11.3 93 0.6 N 13 13 7 7 1019.6 - 0.0
18/04:30am 12.3 10.5 11.0 92 0.7 NW 11 11 6 6 1019.4 - 0.0
18/04:00am 13.1 11.6 11.8 92 0.7 WNW 11 13 6 7 1019.4 - 0.0
18/03:30am 13.0 11.4 11.6 91 0.7 W 11 11 6 6 1019.2 - 0.0
18/03:00am 13.5 12.0 11.9 90 0.9 NW 11 13 6 7 1019.2 1019.2 0.0
18/02:30am 13.5 11.6 11.9 90 0.9 NNW 13 13 7 7 1019.0 - 0.0
18/02:00am 12.9 10.7 10.8 87 1.1 NNW 13 13 7 7 1019.2 - 0.0
18/01:30am 13.6 11.9 11.3 86 1.2 N 11 13 6 7 1019.1 - 0.0
18/01:00am 13.5 11.4 11.0 85 1.3 N 13 13 7 7 1019.0 - 0.0
18/12:30am 13.9 11.4 11.1 83 1.5 N 15 17 8 9 1018.9 - 0.0
18/12:00am 14.0 12.6 10.8 81 1.7 NNW 9 9 5 5 1019.1 1019.1 0.0
 
Date/Time
CST
Tmp

°C
App
Tmp
°C
Dew
Point
°C
Rel
Hum
%
Delta-T

°C
Wind Press
QNH
hPa
Press
MSL
hPa
Rain
since
9 am
mm
Dir
 
Spd
km/h
Gust
km/h
Spd
kts
Gust
kts
17/11:30pm 14.3 12.6 11.3 82 1.6 NNW 11 15 6 8 1019.5 - 0.0
17/11:00pm 14.4 12.8 11.7 84 1.5 N 11 15 6 8 1019.6 - 0.0
17/10:30pm 14.4 12.8 11.7 84 1.5 N 11 13 6 7 1019.7 - 0.0
17/10:00pm 15.1 14.0 11.9 81 1.7 N 9 9 5 5 1019.7 - 0.0
17/09:30pm 15.4 14.0 12.2 81 1.7 N 11 13 6 7 1019.7 - 0.0
17/09:00pm 15.0 13.5 11.8 81 1.7 NE 11 13 6 7 1019.7 1019.7 0.0
17/08:30pm 15.1 13.5 11.7 80 1.8 NE 11 11 6 6 1019.4 - 0.0

Latest Capital City Observations: Canberra | Sydney | Melbourne | Brisbane | Adelaide | Perth | Hobart | Darwin

Other Formats:

Comma delimited format used in spreadsheet applications
http://www.bom.gov.au/fwo/IDS60901/IDS60901.95671.axf

JavaScript Object Notation format (JSON) in row-major order
http://www.bom.gov.au/fwo/IDS60901/IDS60901.95671.json